Regional Weather Roundup
Issued by NWS

Home | Current Version | Previous Version | Graphics & Text | Print | Product List | Glossary On
Versions: 1 2 3 4 5 6 7 8 9 10 11 12 13 14 15 16 17 18 19 20 21 22 23 24 25 26 27 28 29 30 31 32 33 34 35 36 37 38 39 40 41 42 43 44 45 46 47 48 49 50
000
ASUS43 KMKX 021500
RWRWI

WISCONSIN REGIONAL WEATHER ROUNDUP
NATIONAL WEATHER SERVICE MILWAUKEE/SULLIVAN WI
1000 AM CDT WED SEP 02 2015

NOTE: "FAIR" INDICATES FEW OR NO CLOUDS BELOW 12,000 FEET WITH NO
SIGNIFICANT WEATHER AND/OR OBSTRUCTIONS TO VISIBILITY.

WIZ001-002-006>008-014>016-023>028-021600-
NORTHWEST WISCONSIN

CITY           SKY/WX    TMP DP  RH WIND       PRES   REMARKS
SUPERIOR ARPT  DRIZZLE   63  63  98 NE7       29.98S
ASHLAND        LGT RAIN  69  69 100 NW8       30.01F
HAYWARD        CLOUDY    68  66  93 N5        30.00R
SIREN          LGT RAIN  67  65  92 S5        29.95R
CUMBERLAND     CLOUDY    64  63  94 SE9       29.98R
RICE LAKE      CLOUDY    67  65  91 SE8       30.00R
CHETEK         DRIZZLE  N/A N/A N/A MISG      29.99R
LADYSMITH      RAIN      68  66  93 E3        30.01S
EAU CLAIRE     LGT RAIN  70  68  93 NW8       29.97F FOG
MENOMONIE      TSTM      69  67  95 N3        29.98F
NEW RICHMOND   LGT RAIN  69  66  90 SE13G20   29.96F
OSCEOLA        CLOUDY    71  71 100 SE13      29.97S
$$

WIZ003>005-009-010-017-018-021600-
NORTH CENTRAL WISCONSIN

CITY           SKY/WX    TMP DP  RH WIND       PRES   REMARKS
MANITOWISH WTR DRIZZLE   65  65 100 NW5       30.04R
ARBOR VITAE    CLOUDY    67  65  91 NW7       30.02R
WOODRUFF       CLOUDY    67  65  91 NW7       30.02R
RHINELANDER    LGT RAIN  68  65  90 E6        30.02F
EAGLE RIVER    DRIZZLE   65  62  93 N3        30.03F
LAND O LAKES   LGT RAIN  64  64  97 NE3       30.03F
PHILLIPS       CLOUDY    67  65  93 CALM      30.01R
TOMAHAWK       CLOUDY    68  65  92 N3        30.01F
MEDFORD        CLOUDY    70  65  82 CALM      30.02R
MERRILL        CLOUDY    72  72 100 N3        30.00S FOG
$$

WIZ029-030-035-036-043>047-021600-
CENTRAL WISCONSIN

CITY           SKY/WX    TMP DP  RH WIND       PRES   REMARKS
WAUSAU         CLOUDY    76  72  87 SW5       29.98S FOG
MOSINEE        MOSUNNY   75  75 100 SW8       30.00F FOG
MARSHFIELD     CLOUDY    76  70  82 SW6       30.00S
STEVENS POINT  CLOUDY    75  70  84 S5        29.99F
WAUPACA        PTSUNNY   82  73  76 SW6       29.99S HX  87
WAUTOMA        NOT AVBL
WISC RAPIDS    PTSUNNY   79  69  71 SW8       30.01S HX  81
CAMP DOUGLAS   NOT AVBL
$$

WIZ011>013-019>022-031-037>040-048>050-021600-
NORTHEAST WISCONSIN

CITY           SKY/WX    TMP DP  RH WIND       PRES   REMARKS
ANTIGO         CLOUDY    74  73  97 SW6       30.02S
SHAWANO        MOSUNNY   80  74  79 SW6       29.98F HX  85
OCONTO         MOSUNNY   80  78  93 W7        29.97S HX  85
STURGEON BAY   MOSUNNY   79  73  83 W8        30.00S HX  82
GREEN BAY      SUNNY     82  75  79 SW8       29.98S HX  89
MANITOWOC      NOT AVBL
APPLETON       PTSUNNY   79  73  83 SW6       29.99S HX  82
CLINTONVILLE   MOSUNNY   81  72  74 SW7       29.98S HX  84
OSHKOSH        MOSUNNY   80  72  76 S8        30.00S HX  84
$$

WIZ032>034-041-042-053>061-021600-
SOUTHWEST WISCONSIN

CITY           SKY/WX    TMP DP  RH WIND       PRES   REMARKS
LA CROSSE      CLOUDY    79  69  71 S12       29.96S HX  81
SPARTA         CLOUDY    76  69  79 CALM      29.98S
VIROQUA          N/A     76  68  78 S8        30.00F
BOSCOBEL       PTSUNNY   81  70  69 W7        30.00R HX  84
PRAIRIE DU CHI CLOUDY    76  67  72 S3        30.00S
PLATTEVILLE    PTSUNNY   77  72  85 S9        30.02S
$$

WIZ056-057-062-063-064-067-068-021600-
SOUTH CENTRAL WISCONSIN

CITY           SKY/WX    TMP DP  RH WIND       PRES   REMARKS
REEDSBURG      MOSUNNY   79  70  74 SW6       29.99S HX  81
BARABOO/DELLS  MOSUNNY   80  66  62 S5        30.00S HX  82
LONE ROCK      NOT AVBL
MINERAL POINT  PTSUNNY   77  70  78 S10       30.02F
MADISON        PTSUNNY   79  70  74 S7        30.01F HX  82
MIDDLETON      SUNNY     82  67  62 SW8       30.02S HX  84
WATERTOWN      SUNNY     77  75  95 SW5       30.03S
MONROE         MOSUNNY   77  70  78 SW9       30.04F
JANESVILLE     SUNNY     81  70  69 SW8       30.03F HX  84
$$

WIZ051-052-058>065-066-070>072-021600-
SOUTHEAST WISCONSIN

CITY           SKY/WX    TMP DP  RH WIND       PRES   REMARKS
MILWAUKEE      MOSUNNY   82  69  64 W7        30.03S HX  85
WAUKESHA       SUNNY     79  70  73 SW6       30.05S HX  81
MILWAUKEE/TIMM SUNNY     81  68  65 SW5       30.03S HX  83
RACINE         SUNNY     82  70  66 W7        30.05F HX  86
BURLINGTON     SUNNY     78  69  73 SW3       30.04S HX  80
KENOSHA        SUNNY     81  71  71 W7        30.05S HX  85
FOND DU LAC    MOSUNNY   79  71  76 SW8       30.01S HX  82
SHEBOYGAN      SUNNY     83  72  69 W8        30.01R HX  88
WEST BEND      SUNNY     79  68  69 W6        30.03R HX  81
JUNEAU         SUNNY     76  71  85 S6        30.04S
$$

LSZ147-162-021600-
LAKE SUPERIOR

STATION/POSITION TIME  TEMP    WIND        PRES    WAVE
                       AIR SEA DIR/SP/G            HT/PER
                 (UTC) (F)     (DEG/KT/KT) (MB)    (FT/S)
W MID LAKE BUOY  1350   57 56   80/  2/  4 1015.3R   0
DEVILS ISLAND    1400   61     310/ 16/ 21 1017.0R
PORT WING        1440   65      60/  4/  5 1016.6R
SAXON HARBOR     1400   68     200/  6/ 11 1015.2
$$

LMZ867-665-643>646-021600-
LAKE MICHIGAN

STATION/POSITION TIME  TEMP    WIND        PRES    WAVE
                       AIR SEA DIR/SP/G            HT/PER
                 (UTC) (F)     (DEG/KT/KT) (MB)    (FT/S)
CHAMBERS ISLAND  1400   75      CALM  /  4 1014.6F
N MID LAKE BUOY  1350   65 65  190/  8/  8 1014.6F   1/ 4
NORTHPORT PIER   1400   67     140/  3/  3 1014.9S
SISTER BAY       1404   77        CALM       N/A
ALGOMA LAKESHORE 1429          200/  3/  5   N/A
KEWAUNEE LAKESHO 1400   71     190/  2/  5 1014.1F
SHEBOYGAN LAKESH 1400   73     190/  5/  5 1015.8F
PORT WASHINGTON  1440   69     110/  2/  8 1016.9S
ATWATER BUOY     1400   61 52  150/  6/  6 1017.9F
MILWAUKEE LAKESH 1410   79     240/  6/  6   N/A
S MID LAKE BUOY  1450   72 70  210/ 10/ 12 1016.8F
KENOSHA   LAKESH 1400   76     240/  2/  5 1016.9S
$$

TC  - TEMPERATURE IN CELSIUS
VSB - VISIBILITY IN STATUTE MILES
WCI - WIND CHILL INDEX
HX  - HEAT INDEX



USA.gov is the U.S. government's official web portal to all federal, state and local government web resources and services.